Weather reports worldwide

Advertisment
Gottfrieding, Germany (10872): temperature & dewpoint: 12.10.2018 03:00:00 - 18.10.2018 03:00:00 (CEST)Gottfrieding, Germany (10872): temperature 5cm & temperature -5cm: 12.10.2018 03:00:00 - 18.10.2018 03:00:00 (CEST)Gottfrieding, Germany (10872): temperature -20cm & temperature -100cm: 12.10.2018 03:00:00 - 18.10.2018 03:00:00 (CEST)Gottfrieding, Germany (10872): wind speed & gusts: 12.10.2018 03:00:00 - 18.10.2018 03:00:00 (CEST)Gottfrieding, Germany (10872): wind direction: 12.10.2018 03:00:00 - 18.10.2018 03:00:00 (CEST)Gottfrieding, Germany (10872): reduced air pressure: 12.10.2018 03:00:00 - 18.10.2018 03:00:00 (CEST)Gottfrieding, Germany (10872): visibility: 12.10.2018 03:00:00 - 18.10.2018 03:00:00 (CEST)Gottfrieding, Germany (10872): sunshine duration: 12.10.2018 03:00:00 - 18.10.2018 03:00:00 (CEST)Gottfrieding, Germany (10872): precipitation: 12.10.2018 03:00:00 - 18.10.2018 03:00:00 (CEST)
Date & Time tt [°C] td [°C] tt 5cm [°C] tt -5cm [°C] tt -20cm [°C] tt -100cm [°C] ff [km/h] ff [kn] fx [km/h] fx [kn] dd ppp [hPa] vv [km] sd [min] rr [mm]
18.10.2018 03:00:00 4,5 3,7 2,1 10,1 13,9 14,7 5 3 6 3 W 1020,8 4,2 0 0,0
18.10.2018 02:00:00 4,2 3,4 2,7 10,5 14,1 14,7 5 3 6 3 WNW 1020,9 3,3 0 0,0
18.10.2018 01:00:00 6,0 5,6 2,5 11,0 14,3 14,7 0 0 6 3 N 1020,5 4,0 0 0,0
18.10.2018 00:00:00 7,1 6,1 3,8 11,6 14,5 14,7 5 3 7 4 WSW 1020,2 4,5 0 0,0
17.10.2018 23:00:00 7,8 6,5 4,5 12,2 14,6 14,7 7 4 7 4 SSW 1020,2 7 0 0,0
17.10.2018 22:00:00 8,2 6,8 5,3 12,8 14,7 14,7 3 1 5 3 SW 1020,2 7 0 0,0
17.10.2018 21:00:00 10,2 8,0 6,4 13,6 14,8 14,7 5 3 6 3 SSW 1019,3 10 0 0,0
17.10.2018 20:00:00 10,7 8,6 7,1 14,7 14,8 14,7 3 2 5 3 SSW 1019,0 9 0 0,0
17.10.2018 19:00:00 14,1 8,9 9,0 16,1 14,7 14,7 3 2 5 3 NNE 1018,3 13 5 0,0
17.10.2018 18:00:00 17,8 9,1 15,3 17,8 14,5 14,7 4 2 8 4 NE 1017,5 14 60 0,0
17.10.2018 17:00:00 19,5 8,0 20,4 19,2 14,2 14,8 6 3 11 6 E 1017,4 18 60 0,0
17.10.2018 16:00:00 19,5 7,5 21,6 19,9 13,9 14,8 5 3 10 5 E 1017,5 14 60 0,0
17.10.2018 15:00:00 19,4 8,9 22,3 19,8 13,5 14,8 5 3 13 7 E 1017,8 12 60 0,0
17.10.2018 14:00:00 18,3 9,3 21,1 18,9 13,3 14,8 4 2 10 5 E 1018,4 9 60 0,0
17.10.2018 13:00:00 16,7 8,6 19,3 17,3 13,1 14,8 3 2 9 5 E 1019,3 8 60 0,0
17.10.2018 12:00:00 15,1 8,1 16,1 14,7 13,0 14,8 0 0 6 3 N 1020,1 8 34 0,0
17.10.2018 11:00:00 12,3 8,4 13,7 13,4 13,0 14,8 3 2 6 3 E 1020,8 6 43 0,0
17.10.2018 10:00:00 11,0 6,9 11,5 11,5 13,1 14,8 0 0 3 2 N 1020,8 6 60 0,0
17.10.2018 09:00:00 7,5 5,7 7,5 10,1 13,2 14,8 0 0 4 2 N 1021,2 5 32 0,0
17.10.2018 08:00:00 6,5 5,9 4,7 10,2 13,3 14,8 3 1 5 3 N 1021,2 3,3 0 0,0
17.10.2018 07:00:00 6,8 5,9 5,7 10,4 13,4 14,8 2 1 5 3 ESE 1020,8 4,6 0 0,0
17.10.2018 06:00:00 6,8 4,9 6,4 10,5 13,6 14,8 2 1 5 3 NE 1020,7 8 0 0,0
17.10.2018 05:00:00 6,6 5,8 5,7 10,4 13,7 14,8 3 1 4 2 SSW 1020,5 6 0 0,0
17.10.2018 04:00:00 5,8 5,2 4,2 10,5 13,9 14,8 3 2 5 3 W 1020,9 3,8 0 0,0
17.10.2018 03:00:00 6,3 4,9 6,0 10,7 14,1 14,8 0 0 8 5 N 1021,0 7 0 0,0
17.10.2018 02:00:00 6,1 5,9 3,0 10,9 14,3 14,8 2 1 4 2 S 1021,0 3,2 0 0,0
17.10.2018 01:00:00 5,9 4,9 3,1 11,4 14,4 14,8 0 0 5 3 N 1021,2 4,7 0 0,0
17.10.2018 00:00:00 7,1 5,7 4,4 12,0 14,6 14,8 0 0 8 5 N 1020,9 7 0 0,0
16.10.2018 23:00:00 7,8 6,3 4,7 12,6 14,7 14,8 3 2 6 3 W 1020,9 8 0 0,0
16.10.2018 22:00:00 8,9 7,4 5,0 13,4 14,8 14,8 4 2 5 3 NW 1020,7 9 0 0,0
16.10.2018 21:00:00 11,4 8,9 8,1 14,4 14,8 14,8 4 2 6 3 S 1020,1 12 0 0,0
16.10.2018 20:00:00 13,5 9,3 11,1 15,4 14,7 14,8 0 0 7 4 N 1019,7 14 0 0,0
16.10.2018 19:00:00 15,6 9,2 12,1 16,5 14,6 14,8 4 2 8 5 E 1019,0 15 0 0,0
16.10.2018 18:00:00 19,0 8,3 17,6 17,9 14,4 14,8 4 2 6 3 N 1018,1 24 55 0,0
16.10.2018 17:00:00 20,0 6,7 20,1 19,1 14,1 14,8 3 2 12 6 NW 1017,9 19 60 0,0
16.10.2018 16:00:00 20,1 8,1 21,5 19,8 13,7 14,8 4 2 10 5 W 1018,0 1,8 60 0,0
16.10.2018 15:00:00 18,9 8,1 22,0 19,7 13,4 14,8 5 3 10 5 W 1018,4 3,4 60 0,0
16.10.2018 14:00:00 18,0 7,1 20,7 18,9 13,1 14,8 3 2 7 4 N 1018,8 12 60 0,0
16.10.2018 13:00:00 16,2 6,3 19,1 17,4 12,9 14,8 5 3 9 5 WNW 1019,4 10 60 0,0
16.10.2018 12:00:00 14,2 6,5 16,7 15,2 12,8 14,8 4 2 8 4 WNW 1019,7 12 60 0,0
16.10.2018 11:00:00 11,9 6,3 13,8 12,7 12,8 14,8 5 3 14 8 SSW 1019,9 10 60 0,0
16.10.2018 10:00:00 9,0 6,4 10,5 10,5 13,0 14,8 8 4 14 7 W 1020,3 7 60 0,0
16.10.2018 09:00:00 5,8 3,9 6,4 8,7 13,1 14,8 5 3 7 4 SSW 1020,7 9 55 0,0
16.10.2018 08:00:00 3,2 2,5 0,8 8,4 13,3 14,8 4 2 6 3 W 1020,5 6 0 0,0
16.10.2018 07:00:00 3,7 2,9 -0,2 8,8 13,5 14,8 3 2 5 3 WNW 1019,9 4,9 0 0,0
16.10.2018 06:00:00 3,4 2,5 1,2 9,1 13,7 14,8 4 2 8 4 NW 1019,6 6 0 0,0
16.10.2018 05:00:00 3,1 1,9 1,1 9,5 13,9 14,8 3 1 5 3 NNW 1019,2 7 0 0,0
16.10.2018 04:00:00 5,6 4,7 2,3 9,9 14,1 14,8 4 2 7 4 SSW 1018,5 10 0 0,0
16.10.2018 03:00:00 5,7 4,2 2,1 10,3 14,3 14,8 5 3 7 4 W 1018,3 12 0 0,0
16.10.2018 02:00:00 5,4 4,5 2,4 10,8 14,5 14,8 3 2 5 3 SSW 1018,2 10 0 0,0
16.10.2018 01:00:00 5,4 3,4 2,4 11,3 14,7 14,8 3 2 6 3 NNW 1018,0 11 0 0,0
16.10.2018 00:00:00 7,3 6,2 3,8 11,9 14,9 14,8 3 2 6 3 SSW 1017,7 10 0 0,0
15.10.2018 23:00:00 8,0 5,2 4,3 12,5 15,0 14,8 3 2 5 3 SW 1017,4 16 0 0,0
15.10.2018 22:00:00 9,5 6,7 5,2 13,2 15,2 14,8 2 1 6 3 NNE 1016,6 16 0 0,0
15.10.2018 21:00:00 11,0 6,0 6,7 14,1 15,2 14,8 4 2 11 6 E 1016,2 21 0 0,0
15.10.2018 20:00:00 14,1 6,2 9,7 15,1 15,2 14,8 10 5 13 7 ENE 1015,7 22 0 0,0
15.10.2018 19:00:00 15,2 6,5 11,3 16,5 15,1 14,9 8 4 14 8 E 1015,4 23 12 0,0
15.10.2018 18:00:00 18,2 7,9 16,7 18,2 14,9 14,9 11 6 19 10 ENE 1014,5 29 60 0,0
15.10.2018 17:00:00 20,5 7,2 21,3 19,2 14,7 14,9 12 6 26 14 E 1014,3 32 60 0,0
15.10.2018 16:00:00 20,6 6,5 22,5 19,7 14,4 14,9 18 10 26 14 E 1014,4 25 58 0,0
15.10.2018 15:00:00 20,3 7,1 23,4 20,0 14,0 14,9 16 8 28 15 E 1014,9 27 60 0,0
15.10.2018 14:00:00 20,0 6,7 23,7 19,0 13,8 14,9 15 8 22 12 E 1015,1 20 58 0,0
15.10.2018 13:00:00 18,6 5,6 20,9 18,1 13,6 14,9 14 7 21 11 E 1015,7 26 60 0,0
15.10.2018 12:00:00 18,3 5,6 21,2 15,8 13,5 14,9 12 7 20 11 E 1015,8 24 59 0,0
15.10.2018 11:00:00 16,5 5,6 18,3 13,5 13,5 14,9 12 6 16 9 ENE 1016,3 29 53 0,0
15.10.2018 10:00:00 12,8 5,7 11,9 11,5 13,7 14,9 10 5 15 8 ENE 1016,8 32 49 0,0
15.10.2018 09:00:00 10,6 5,8 10,1 10,2 13,8 14,8 5 3 9 5 ENE 1016,9 32 33 0,0
15.10.2018 08:00:00 6,3 4,6 3,0 9,9 14,0 14,8 4 2 9 5 E 1017,2 21 0 0,0
15.10.2018 07:00:00 7,9 4,1 3,7 10,3 14,2 14,8 6 3 14 8 ENE 1016,5 26 0 0,0
15.10.2018 06:00:00 8,3 4,1 5,7 10,7 14,3 14,9 13 7 14 8 NE 1016,3 29 0 0,0
15.10.2018 05:00:00 8,8 4,2 5,8 11,1 14,5 14,9 11 6 14 8 NE 1016,1 33 0 0,0
15.10.2018 04:00:00 9,8 4,5 7,0 11,5 14,7 14,9 11 6 15 8 ENE 1015,9 34 0 0,0
15.10.2018 03:00:00 11,1 5,1 7,5 12,0 14,8 14,9 8 4 14 8 NNE 1015,7 42 0 0,0
15.10.2018 02:00:00 10,2 4,9 7,9 12,5 15,0 14,9 13 7 21 11 NE 1015,7 32 0 0,0
15.10.2018 01:00:00 12,5 5,5 9,8 12,9 15,1 14,9 15 8 19 10 ENE 1015,2 38 0 0,0
15.10.2018 00:00:00 13,0 5,8 10,5 13,4 15,2 14,9 16 8 21 11 NE 1014,8 42 0 0,0
14.10.2018 23:00:00 14,7 6,2 11,9 13,8 15,4 14,9 12 6 16 9 NE 1014,3 38 0 0,0
14.10.2018 22:00:00 15,0 6,3 12,6 14,4 15,5 14,9 11 6 18 10 NE 1014,2 35 0 0,0
14.10.2018 21:00:00 14,8 6,3 11,9 15,1 15,5 14,9 14 7 19 10 ENE 1013,9 37 0 0,0
14.10.2018 20:00:00 16,6 7,3 12,9 16,0 15,5 14,9 11 6 16 9 NE 1013,4 30 0 0,0
14.10.2018 19:00:00 18,2 7,7 14,3 17,3 15,4 14,9 13 7 17 9 ENE 1013,2 32 18 0,0
14.10.2018 18:00:00 21,2 7,7 19,4 18,9 15,1 14,9 11 6 27 15 E 1012,5 32 60 0,0
14.10.2018 17:00:00 23,2 7,1 23,3 20,0 14,8 14,9 21 11 32 18 E 1012,6 31 60 0,0
14.10.2018 16:00:00 23,8 6,1 25,1 20,6 14,5 14,9 23 12 33 18 ESE 1012,7 21 60 0,0
14.10.2018 15:00:00 23,6 6,2 26,2 20,7 14,2 14,9 21 12 28 15 E 1013,2 21 60 0,0
14.10.2018 14:00:00 22,4 5,5 25,4 19,9 13,9 14,9 22 12 28 15 ESE 1014,0 21 60 0,0
14.10.2018 13:00:00 21,6 6,1 24,4 18,5 13,6 14,9 19 10 27 14 ESE 1014,9 23 60 0,0
14.10.2018 12:00:00 19,8 6,5 22,3 16,8 13,5 14,9 15 8 21 12 ESE 1015,7 23 60 0,0
14.10.2018 11:00:00 17,6 6,6 19,1 14,4 13,5 14,9 9 5 15 8 E 1016,4 29 60 0,0
14.10.2018 10:00:00 14,9 6,8 15,4 12,1 13,6 14,9 9 5 13 7 ENE 1017,1 21 60 0,0
14.10.2018 09:00:00 12,2 6,6 11,6 10,3 13,7 14,9 6 3 9 5 ENE 1017,5 21 60 0,0
14.10.2018 08:00:00 8,1 4,5 4,7 9,8 13,9 14,9 9 5 14 7 ENE 1018,2 17 7 0,0
14.10.2018 07:00:00 9,4 4,9 5,8 10,1 14,1 14,9 11 6 13 7 NE 1017,9 22 0 0,0
14.10.2018 06:00:00 9,0 4,2 5,5 10,5 14,3 14,9 10 5 14 7 ENE 1018,5 23 0 0,0
14.10.2018 05:00:00 10,5 5,6 6,8 10,8 14,4 14,9 10 6 13 7 ENE 1018,4 22 0 0,0
14.10.2018 04:00:00 9,8 5,2 6,5 11,1 14,6 14,9 11 6 16 9 ENE 1018,5 21 0 0,0
14.10.2018 03:00:00 10,5 6,1 6,7 11,5 14,8 14,9 11 6 14 8 ENE 1018,7 18 0 0,0
14.10.2018 02:00:00 9,9 5,9 6,4 11,9 15,0 14,9 10 5 16 9 ENE 1018,9 16 0 0,0
14.10.2018 01:00:00 11,1 7,0 8,1 12,4 15,1 14,9 12 7 16 9 NE 1018,9 13 0 0,0
14.10.2018 00:00:00 11,2 6,9 8,5 12,8 15,3 14,9 12 7 19 11 ENE 1018,8 14 0 0,0
13.10.2018 23:00:00 11,9 7,5 8,0 13,3 15,5 14,9 7 4 13 7 NNE 1019,0 14 0 0,0
13.10.2018 22:00:00 12,4 7,8 8,4 13,8 15,6 14,9 10 5 14 7 ENE 1019,1 16 0 0,0
13.10.2018 21:00:00 11,6 7,6 7,6 14,6 15,7 14,9 10 6 14 7 E 1019,5 17 0 0,0
13.10.2018 20:00:00 11,6 7,9 8,0 15,7 15,7 14,9 5 3 8 4 ESE 1020,0 24 0 0,0
13.10.2018 19:00:00 14,3 7,3 9,7 17,2 15,6 14,9 5 3 11 6 E 1019,8 24 24 0,0
13.10.2018 18:00:00 19,8 7,6 18,4 19,1 15,4 14,9 11 6 16 9 ENE 1019,3 34 60 0,0
13.10.2018 17:00:00 21,8 7,9 22,3 20,4 15,1 14,9 14 8 21 11 ENE 1019,2 28 60 0,0
13.10.2018 16:00:00 22,5 8,3 24,0 21,0 14,7 14,9 16 9 27 14 E 1019,9 29 60 0,0
13.10.2018 15:00:00 22,1 7,2 24,8 21,1 14,4 14,9 16 9 25 13 E 1020,4 34 60 0,0
13.10.2018 14:00:00 21,4 7,7 24,6 20,5 14,1 14,9 13 7 23 12 E 1021,5 20 60 0,0
13.10.2018 13:00:00 20,5 9,3 23,6 18,9 13,9 14,9 10 6 21 12 E 1022,6 16 60 0,0
13.10.2018 12:00:00 19,3 9,2 21,5 17,1 13,8 14,9 15 8 22 12 E 1023,5 10 60 0,0
13.10.2018 11:00:00 15,7 10,5 17,6 14,7 13,8 14,8 9 5 13 7 ENE 1024,6 10 60 0,0
13.10.2018 10:00:00 12,0 9,7 12,9 12,4 13,9 14,8 8 4 9 5 NE 1025,6 8 60 0,0
13.10.2018 09:00:00 7,4 7,3 8,0 10,8 14,0 14,8 0 0 3 2 N 1026,5 0,1 4 0,0
13.10.2018 08:00:00 5,0 5,0 5,3 10,2 14,2 14,8 2 1 6 3 N 1026,7 0,1 0 0,0
13.10.2018 07:00:00 5,7 5,6 3,2 10,4 14,4 14,8 3 2 4 2 SSE 1026,5 0,2 0 0,0
13.10.2018 06:00:00 5,2 4,9 3,0 10,7 14,6 14,8 2 1 5 3 E 1026,5 0,2 0 0,0
13.10.2018 05:00:00 5,6 5,5 3,5 11,1 14,8 14,8 2 1 4 2 S 1026,4 0,2 0 0,0
13.10.2018 04:00:00 6,2 6,0 3,8 11,4 15,0 14,8 0 0 3 1 N 1026,4 0,3 0 0,0
13.10.2018 03:00:00 6,7 6,7 4,1 11,8 15,2 14,8 2 1 3 2 WNW 1026,5 0,7 0 0,0
13.10.2018 02:00:00 7,5 7,4 5,0 12,4 15,4 14,8 3 2 5 3 SSE 1026,4 0,8 0 0,0
13.10.2018 01:00:00 7,5 6,9 5,7 12,9 15,5 14,8 3 1 3 2 W 1026,5 0,3 0 0,0
13.10.2018 00:00:00 9,0 8,8 6,1 13,5 15,7 14,8 3 2 5 3 E 1026,6 0,2 0 0,0
12.10.2018 23:00:00 10,3 9,9 7,5 14,2 15,9 14,8 2 1 7 4 E 1026,5 6 0 0,0
12.10.2018 22:00:00 11,0 10,2 7,8 15,0 16,0 14,8 2 1 4 2 NNE 1026,2 7 0 0,0
12.10.2018 21:00:00 11,5 9,7 9,6 15,9 16,0 14,8 4 2 5 3 SSE 1025,9 12 0 0,0
12.10.2018 20:00:00 13,9 11,4 10,6 17,0 16,0 14,8 3 2 8 4 ESE 1025,0 16 0 0,0
12.10.2018 19:00:00 17,5 10,7 13,6 18,5 15,9 14,8 6 4 10 6 NE 1024,0 19 22 0,0
12.10.2018 18:00:00 21,2 11,5 20,0 20,3 15,6 14,9 9 5 11 6 ENE 1023,2 20 60 0,0
12.10.2018 17:00:00 22,5 10,8 23,7 21,6 15,3 14,9 7 4 11 6 ENE 1023,0 20 60 0,0
12.10.2018 16:00:00 22,9 10,4 25,2 22,3 14,9 14,9 5 3 10 6 E 1023,2 20 60 0,0
12.10.2018 15:00:00 22,5 10,2 25,5 22,2 14,5 14,9 4 2 13 7 ENE 1023,4 22 60 0,0
12.10.2018 14:00:00 21,7 9,6 24,5 21,4 14,2 14,9 4 2 9 5 NNW 1023,7 17 60 0,0
12.10.2018 13:00:00 20,1 9,2 22,8 19,8 13,9 14,9 4 2 7 4 W 1024,4 15 59 0,0
12.10.2018 12:00:00 18,4 8,7 20,4 17,5 13,8 14,9 3 2 8 5 WNW 1024,7 15 60 0,0
12.10.2018 11:00:00 16,2 8,7 16,8 15,1 13,8 14,9 3 1 6 4 SSW 1025,0 15 51 0,0
12.10.2018 10:00:00 13,1 7,8 13,2 13,3 13,9 14,8 4 2 6 3 W 1025,0 17 57 0,0
12.10.2018 09:00:00 10,6 8,4 10,7 11,4 14,0 14,8 5 3 6 3 S 1024,5 12 32 0,0
12.10.2018 08:00:00 8,1 7,5 5,7 11,4 14,1 14,8 3 2 5 3 WNW 1024,0 3,2 0 0,0
12.10.2018 07:00:00 9,4 8,4 7,1 12,1 14,2 14,8 5 3 6 3 ESE 1022,7 10 0 0,0
12.10.2018 06:00:00 10,4 9,0 9,7 12,5 14,2 14,8 4 2 6 3 WSW 1022,2 11 0 0,1
12.10.2018 05:00:00 10,7 8,4 10,3 12,5 14,3 14,8 2 1 5 3 ESE 1021,4 15 0 0,0
12.10.2018 04:00:00 10,8 7,7 10,4 12,5 14,4 14,8 2 1 4 2 SSE 1020,8 19 0 0,0
12.10.2018 03:00:00 10,2 7,2 9,8 12,3 14,6 14,8 5 3 6 3 SE 1020,3 17 0 0,0

tt = temperature
td = dewpoint
tt 5cm = temperature 5cm
tt -5cm = temperature -5cm
tt -20cm = temperature -20cm
tt -100cm = temperature -100cm
ff = wind speed
fx = gusts
dd = wind direction
ppp = reduced air pressure
vv = visibility
sd = sunshine duration
rr = precipitation

Next stations